Regional Weather Roundup
Issued by NWS

Home | Current Version | Previous Version | Graphics & Text | Print | Product List | Glossary On
Versions: 1 2 3 4 5 6 7 8 9 10 11 12 13 14 15 16 17 18 19 20 21 22 23 24 25 26 27 28 29 30 31 32 33 34 35 36 37 38 39 40 41 42 43 44 45 46 47 48 49 50
000
ASUS43 KLMK 081002
RWRKY
KENTUCKY REGIONAL WEATHER ROUNDUP
NATIONAL WEATHER SERVICE LOUISVILLE KY
500 AM EST THU DEC 08 2016

NOTE "FAIR" INDICATES FEW OR NO CLOUDS BELOW 12,000 FEET
WITH NO SIGNIFICANT WEATHER AND/OR OBSTRUCTIONS TO VISIBILITY.

KYZ001>023-026-027-061>063-070>075-081100-
WESTERN AND SOUTH CENTRAL KENTUCKY

CITY           SKY/WX    TMP DP  RH WIND       PRES   REMARKS
PADUCAH        CLOUDY    32  21  64 NW10      30.36R WCI  24
HENDERSON      CLOUDY    30  18  59 NW10      30.34R WCI  21
OWENSBORO      CLOUDY    32  23  69 NW13      30.32S WCI  22
HOPKINSVILLE   CLOUDY    33  21  63 NW5       30.32R WCI  28
BOWLING GREEN  CLOUDY    34  21  59 NW7       30.30S WCI  28
GLASGOW        NOT AVBL
$$

KYZ024-025-028>034-038-045-046-053-081100-
NORTH CENTRAL KENTUCKY

CITY           SKY/WX    TMP DP  RH WIND       PRES   REMARKS
LOUISVILLE/SDF CLOUDY    32  19  58 W8        30.26S WCI  25
LOUISVILLE/LOU MOCLDY    32  21  64 W9        30.26S WCI  24
FORT KNOX      MOCLDY    28  21  75 W7        30.24S WCI  21
$$

KYZ035>037-039>044-047>052-055>060-089>105-081100-
NORTHEAST KENTUCKY

CITY           SKY/WX    TMP DP  RH WIND       PRES   REMARKS
LEXINGTON      CLOUDY    31  21  66 W10       30.21S WCI  22
COVINGTON      MOCLDY    28  20  71 W13       30.18S WCI  17
FRANKFORT      CLOUDY    32  19  58 W6        30.21S WCI  26
$$

KYZ054-064>069-076>088-106>120-081100-
SOUTHEAST KENTUCKY

CITY           SKY/WX    TMP DP  RH WIND       PRES   REMARKS
JACKSON        CLOUDY    33  22  63 VRB5      30.17R WCI  29
LONDON         CLOUDY    33  19  56 NW5       30.20R WCI  29
SOMERSET       NOT AVBL
MIDDLESBORO    CLOUDY    37  22  54 NW5       30.21R WCI  33
MONTICELLO     CLOUDY    33  24  69 NW8       30.26R WCI  26
$$





USA.gov is the U.S. government's official web portal to all federal, state and local government web resources and services.